Home > Weather > Minas > Past weeks

Flag for Uruguay Past Weather in Minas, Uruguay — Yesterday and Last 2 Weeks

Now
57 °F

Sunny.


Feels Like: 57 °F
Forecast: 39 / 56 °F
Wind: 3 mph from West

Location: Capitan Corbeta

Current Time: Jul 23, 2016 at 2:03:04 PM

Latest Report: Jul 23, 2016 at 1:00 PM


Visibility: 10 mi

Pressure: 29.95 "Hg

Humidity: 63%

Dew Point: 45 °F

Location of MinasLocation

Past Weather in Minas — Graph

°F

Minas Temperature Yesterday

Maximum temperature yesterday: 55 °F (at 12:00 PM)
Minimum temperature yesterday: 45 °F (at 5:45 AM)
Average temperature yesterday: 49 °F

High & Low Weather Summary for the Past Weeks

 TemperatureHumidityPressure
High66 °F (Jul 12, 7:00 PM)100% (Jul 10, 3:00 AM)30.39 "Hg (Jul 10, 3:00 AM)
Low37 °F (Jul 20, 4:00 AM)43% (Jul 12, 7:00 PM)29.74 "Hg (Jul 11, 5:00 PM)
Average49 °F81%30.08 "Hg
* Reported Jul 8 1:00 PM — Jul 23 1:00 PM, Minas, Weather by CustomWeather, © 2016

Note: Actual official high and low records may vary slightly from our data, if they occured in-between our weather recording intervals... More about our weather records

Advertising

Minas Weather History for the Previous 24 Hours

Scroll right to see more
 ConditionsComfort  
Time TempWeatherWind HumidityBarometerVisibility
1:00 PM
Sat, Jul 23
57 °FSunny.3 mph63%29.95 "Hg10 mi
12:00 PM52 °FSunny.3 mph67%30.01 "Hg10 mi
11:00 AM50 °FSunny.5 mph76%30.01 "Hg10 mi
10:00 AM46 °FSunny.5 mph82%30.01 "Hg10 mi
9:00 AM48 °FSunny.5 mph87%30.01 "Hg10 mi
8:00 AM46 °FSunny.7 mph87%30.01 "Hg10 mi
7:00 AM43 °FSunny.3 mph87%30.01 "Hg10 mi
6:00 AM45 °FClear.3 mph87%30.01 "Hg10 mi
5:00 AM39 °FClear.3 mph87%30.01 "Hg10 mi
4:00 AM39 °FClear.2 mph81%30.01 "Hg10 mi
3:00 AM45 °FClear.5 mph81%30.01 "Hg10 mi
2:00 AM46 °FClear.5 mph76%30.04 "Hg10 mi
1:00 AM48 °FClear.9 mph76%30.04 "Hg10 mi
12:00 AM48 °FClear.12 mph82%30.04 "Hg10 mi
11:00 PM
Fri, Jul 22
48 °FClear.6 mph82%30.07 "Hg10 mi
10:00 PM48 °FClear.8 mph82%30.07 "Hg10 mi
9:00 PM50 °FClear.7 mph76%30.09 "Hg10 mi
8:00 PM48 °FClear.9 mph82%30.09 "Hg10 mi
7:00 PM48 °FClear.6 mph76%30.09 "Hg10 mi
6:00 PM48 °FClear.3 mph76%30.09 "Hg10 mi
5:00 PM52 °FClear.7 mph67%30.12 "Hg10 mi
4:00 PM54 °FSunny.6 mph63%30.12 "Hg10 mi
3:00 PM55 °FSunny.6 mph59%30.12 "Hg10 mi
2:00 PM55 °FSunny.6 mph63%30.15 "Hg10 mi
Weather by CustomWeather, © 2016

See weather overviewHow to use our weather pages